Buena Vista, CO

8:11 PM MST on February 10, 2016 (GMT -0700)
Buena Vista

Weather History for KAEJ - May, 2013

Change the Weather History Date:

Sunday, May 12, 2013

  Actual Average (KLXV) Record (KLXV)
Temperature  
Mean Temperature 54 °F -  
Max Temperature 68 °F 53 °F - ()
Min Temperature 39 °F 26 °F - ()
Degree Days  
Heating Degree Days 12 25  
Month to date heating degree days 326  
Since 1 July heating degree days 10327  
Cooling Degree Days 0 0  
Month to date cooling degree days 0  
Year to date cooling degree days 0  
Growing Degree Days 4 (Base 50)    
Moisture  
Dew Point 29 °F    
Average Humidity 43    
Maximum Humidity 79    
Minimum Humidity 17    
Precipitation  
Precipitation 0.00 in 0.03 in - ()
Month to date precipitation 0.35  
Year to date precipitation 3.68  
Sea Level Pressure  
Sea Level Pressure 30.38 in    
Wind  
Wind Speed 6 mph (NW)    
Max Wind Speed 20 mph    
Max Gust Speed 31 mph    
Visibility 10 miles    
Events      
T = Trace of Precipitation, MM = Missing Value Source: NWS Daily Summary

Daily Weather History Graph

Daily Weather History Graph

Search for Another Location

Airport or City:

Trip Planner

Search our weather history database for the weather conditions in past years. The results will help you decide how hot, cold, wet, or windy it might be!

Date:

Astronomy

May. 12, 2013 Rise Set
Actual Time 5:54 AM MDT 8:07 PM MDT
Civil Twilight 5:24 AM MDT 8:37 PM MDT
Nautical Twilight 4:48 AM MDT 9:13 PM MDT
Astronomical Twilight 4:08 AM MDT 9:53 PM MDT
Moon 7:52 AM MDT (5/12) 10:36 PM MDT (5/12)
Length of Visible Light 15h 12m
Length of Day
14h 12m
Waxing Crescent, 7% of the Moon is Illuminated
May 12
Waxing Crescent
May 17
First Quarter
May 24
Full
May 31
Last Quarter
Jun 8
New

Hourly Weather History & Observations

Time (MDT) Temp. Windchill Dew Point Humidity Pressure Visibility Wind Dir Wind Speed Gust Speed Precip Events Conditions
12:15 AM 39.6 °F - 32.2 °F 75% 30.43 in 10.0 mi Calm Calm - N/A   Clear
12:35 AM 39.6 °F - 32.9 °F 77% 30.43 in 10.0 mi Calm Calm - N/A   Clear
12:55 AM 39.4 °F - 32.9 °F 78% 30.43 in 10.0 mi Calm Calm - N/A   Clear
1:15 AM 39.6 °F 37.4 °F 33.4 °F 79% 30.43 in 10.0 mi NW 3.5 mph - N/A   Scattered Clouds
1:35 AM 39.7 °F 36.5 °F 32.9 °F 77% 30.43 in 10.0 mi NNW 4.6 mph - N/A   Scattered Clouds
1:55 AM 40.1 °F 38.0 °F 33.6 °F 78% 30.43 in 10.0 mi West 3.5 mph - N/A   Scattered Clouds
2:15 AM 41.0 °F - 32.0 °F 70% 30.42 in 10.0 mi Calm Calm - N/A   Clear
2:35 AM 39.2 °F 37.0 °F 32.5 °F 77% 30.42 in 10.0 mi NNW 3.5 mph - N/A   Clear
2:55 AM 39.7 °F 35.6 °F 32.2 °F 74% 30.42 in 10.0 mi NNW 5.8 mph - N/A   Scattered Clouds
3:35 AM 41.5 °F 35.4 °F 32.0 °F 69% 30.43 in 10.0 mi NNW 10.4 mph - N/A   Clear
3:55 AM 42.8 °F 39.3 °F 31.8 °F 65% 30.42 in 10.0 mi North 5.8 mph - N/A   Scattered Clouds
4:15 AM 42.8 °F 38.6 °F 31.8 °F 65% 30.42 in 10.0 mi NW 6.9 mph - N/A   Clear
4:35 AM 42.4 °F 39.6 °F 32.0 °F 67% 30.42 in 10.0 mi WNW 4.6 mph - N/A   Clear
4:55 AM 42.1 °F 37.1 °F 32.2 °F 68% 30.42 in 10.0 mi NNW 8.1 mph - N/A   Clear
5:15 AM 42.3 °F 39.4 °F 32.2 °F 67% 30.42 in 10.0 mi NW 4.6 mph - N/A   Clear
5:35 AM 42.3 °F 36.3 °F 32.5 °F 68% 30.42 in 10.0 mi NNW 10.4 mph - N/A   Clear
5:55 AM 42.3 °F 39.4 °F 32.4 °F 68% 30.42 in 10.0 mi NE 4.6 mph - N/A   Clear
6:15 AM 43.2 °F 39.7 °F 32.2 °F 65% 30.42 in 10.0 mi NNE 5.8 mph - N/A   Clear
6:35 AM 43.5 °F 38.9 °F 33.1 °F 67% 30.42 in 10.0 mi WNW 8.1 mph - N/A   Clear
6:55 AM 46.0 °F 41.9 °F 33.4 °F 61% 30.42 in 10.0 mi NNW 8.1 mph - N/A   Clear
7:15 AM 46.6 °F - 33.8 °F 61% 30.43 in 10.0 mi NNW 4.6 mph - N/A   Clear
7:35 AM 48.4 °F - 33.6 °F 57% 30.43 in 10.0 mi Calm Calm - N/A   Clear
7:55 AM 47.7 °F - 34.7 °F 61% 30.44 in 10.0 mi ESE 5.8 mph - N/A   Clear
8:15 AM 49.3 °F - 33.4 °F 54% 30.43 in 10.0 mi West 4.6 mph - N/A   Clear
8:35 AM 50.4 °F - 34.0 °F 53% 30.43 in 10.0 mi ESE 6.9 mph - N/A   Clear
8:55 AM 51.1 °F - 34.7 °F 54% 30.43 in 10.0 mi East 3.5 mph - N/A   Clear
9:15 AM 53.1 °F - 34.3 °F 49% 30.42 in 10.0 mi ESE 4.6 mph - N/A   Clear
9:35 AM 55.9 °F - 30.2 °F 37% 30.42 in 10.0 mi SW 5.8 mph - N/A   Clear
9:55 AM 56.7 °F - 30.9 °F 38% 30.40 in 10.0 mi SW 3.5 mph - N/A   Clear
10:15 AM 58.6 °F - 32.0 °F 37% 30.40 in 10.0 mi East 6.9 mph - N/A   Clear
10:35 AM 59.2 °F - 29.3 °F 32% 30.40 in 10.0 mi Calm Calm - N/A   Clear
10:55 AM 61.0 °F - 28.2 °F 29% 30.40 in 10.0 mi WSW 5.8 mph 17.3 mph N/A   Mostly Cloudy
11:15 AM 61.9 °F - 27.3 °F 27% 30.39 in 10.0 mi West 6.9 mph - N/A   Overcast
11:35 AM 60.6 °F - 27.1 °F 28% 30.38 in 10.0 mi WSW 5.8 mph 21.9 mph N/A   Overcast
11:55 AM 63.1 °F - 25.7 °F 24% 30.38 in 10.0 mi WNW 9.2 mph - N/A   Mostly Cloudy
12:15 PM 63.3 °F - 24.3 °F 23% 30.37 in 10.0 mi NW 10.4 mph - N/A   Mostly Cloudy
12:35 PM 65.7 °F - 24.3 °F 21% 30.36 in 10.0 mi NNW 19.6 mph 23.0 mph N/A   Mostly Cloudy
12:55 PM 64.0 °F - 23.7 °F 22% 30.36 in 10.0 mi NNW 18.4 mph - N/A   Mostly Cloudy
1:15 PM 65.1 °F - 23.4 °F 20% 30.36 in 10.0 mi NW 12.7 mph 21.9 mph N/A   Mostly Cloudy
1:35 PM 65.7 °F - 22.3 °F 19% 30.35 in 10.0 mi NNW 10.4 mph 16.1 mph N/A   Overcast
1:55 PM 67.3 °F - 21.6 °F 18% 30.35 in 10.0 mi NW 12.7 mph 18.4 mph N/A   Mostly Cloudy
2:15 PM 68.2 °F - 22.1 °F 17% 30.34 in 10.0 mi NNW 8.1 mph 23.0 mph N/A   Mostly Cloudy
2:35 PM 66.0 °F - 21.7 °F 19% 30.35 in 10.0 mi NW 15.0 mph 21.9 mph N/A   Mostly Cloudy
2:55 PM 65.3 °F - 21.7 °F 19% 30.35 in 10.0 mi NNW 15.0 mph 20.7 mph N/A   Mostly Cloudy
3:15 PM 67.5 °F - 21.2 °F 17% 30.35 in 10.0 mi WNW 12.7 mph 18.4 mph N/A   Overcast
3:35 PM 68.0 °F - 21.0 °F 17% 30.34 in 10.0 mi North 13.8 mph 23.0 mph N/A   Overcast
3:55 PM 65.5 °F - 20.7 °F 18% 30.33 in 10.0 mi WNW 13.8 mph 18.4 mph N/A   Overcast
4:15 PM 66.9 °F - 21.2 °F 18% 30.33 in 10.0 mi WNW 9.2 mph - N/A   Mostly Cloudy
4:35 PM 68.0 °F - 22.3 °F 18% 30.32 in 10.0 mi NW 10.4 mph 16.1 mph N/A   Mostly Cloudy
4:55 PM 68.4 °F - 22.5 °F 18% 30.32 in 10.0 mi WNW 15.0 mph 31.1 mph N/A   Overcast
5:15 PM 68.0 °F - 21.7 °F 17% 30.32 in 10.0 mi WNW 6.9 mph 16.1 mph N/A   Scattered Clouds
5:35 PM 67.6 °F - 23.0 °F 18% 30.32 in 10.0 mi West 11.5 mph 17.3 mph N/A   Scattered Clouds
5:55 PM 67.5 °F - 23.0 °F 19% 30.32 in 10.0 mi NW 12.7 mph 17.3 mph N/A   Clear
6:15 PM 67.8 °F - 23.7 °F 19% 30.32 in 10.0 mi NW 15.0 mph 20.7 mph N/A   Scattered Clouds
6:35 PM 66.7 °F - 24.4 °F 20% 30.32 in 10.0 mi WNW 12.7 mph - N/A   Mostly Cloudy
6:55 PM 65.3 °F - 25.7 °F 22% 30.32 in 10.0 mi West 13.8 mph 19.6 mph N/A   Scattered Clouds
7:15 PM 64.0 °F - 25.9 °F 24% 30.33 in 10.0 mi West 12.7 mph - N/A   Clear
7:35 PM 61.9 °F - 27.1 °F 27% 30.33 in 10.0 mi WNW 11.5 mph - N/A   Clear
7:55 PM 59.2 °F - 28.8 °F 31% 30.33 in 10.0 mi WNW 8.1 mph - N/A   Clear
8:15 PM 55.4 °F - 30.6 °F 39% 30.34 in 10.0 mi NW 10.4 mph - N/A   Clear
8:35 PM 54.9 °F - 30.2 °F 39% 30.35 in 10.0 mi NW 6.9 mph - N/A   Clear
8:55 PM 52.7 °F - 31.6 °F 45% 30.36 in 10.0 mi NW 8.1 mph - N/A   Clear
9:15 PM 52.5 °F - 31.5 °F 45% 30.37 in 10.0 mi NW 6.9 mph - N/A   Clear
9:35 PM 52.0 °F - 31.3 °F 45% 30.38 in 10.0 mi NW 5.8 mph - N/A   Clear
9:55 PM 50.5 °F - 32.0 °F 49% 30.38 in 10.0 mi WNW 5.8 mph - N/A   Clear
10:15 PM 51.3 °F - 30.6 °F 45% 30.38 in 10.0 mi West 6.9 mph - N/A   Clear
10:35 PM 49.8 °F - 32.0 °F 50% 30.39 in 10.0 mi WNW 10.4 mph - N/A   Clear
10:55 PM 51.3 °F - 30.4 °F 45% 30.39 in 10.0 mi NW 10.4 mph - N/A   Clear
11:15 PM 50.4 °F - 30.0 °F 46% 30.39 in 10.0 mi NW 11.5 mph - N/A   Clear
11:35 PM 50.2 °F - 30.0 °F 46% 30.39 in 10.0 mi NW 13.8 mph - N/A   Clear
11:55 PM 49.6 °F - 29.8 °F 47% 30.40 in 10.0 mi NW 12.7 mph - N/A   Clear